Simultaneous Nadir Overpasses (SNOs) Predictions

Prediction of SNOs between NOAA-19 and TERRA Satellite Orbit:

Table of predicted SNOs for the next 14.0 days since TLE Epoch: 12/31/2022
Index Date (NOAA-19) Time (NOAA-19) Lat,Lon (NOAA-19) SZA (NOAA-19 ) Date (TERRA) Time (TERRA) Lat,Lon (TERRA) SZA (TERRA ) Distance(km) Time Diff (sec)
1 01/01/2023 23:21:43 80.92,-135.13 105.34 01/01/2023 23:22:20 80.90,-135.27 105.32 3.20 37
2 01/02/2023 00:12:47 -80.92, 32.51 74.64 01/02/2023 00:11:42 -80.92, 32.63 74.65 2.15 65
3 01/04/2023 03:12:33 -80.92, -12.74 74.88 01/04/2023 03:13:14 -80.92, -12.78 74.87 0.69 41
4 01/04/2023 04:03:27 80.92, 154.73 105.13 01/04/2023 04:02:37 80.92, 154.83 105.12 1.74 50
5 01/06/2023 07:03:13 80.92, 109.47 104.85 01/06/2023 07:04:09 80.91, 109.32 104.85 2.93 56
6 01/06/2023 07:54:17 -80.92, -82.98 75.13 01/06/2023 07:53:32 -80.90, -83.12 75.17 3.23 45
7 01/08/2023 10:54:03 -80.92,-128.35 75.45 01/08/2023 10:55:03 -80.91,-128.37 75.44 1.07 60
8 01/08/2023 11:44:57 80.92, 39.24 104.57 01/08/2023 11:44:26 80.91, 39.22 104.55 1.49 31
9 01/10/2023 14:44:46 80.92, -7.23 104.13 01/10/2023 14:45:59 80.85, -6.83 104.13 10.50 73
10 01/10/2023 15:35:46 -80.92, 161.65 75.75 01/10/2023 15:35:19 -80.93, 161.77 75.74 2.43 27



Historial Predications of SNOs between NOAA-19 and TERRA
